Change the Weather History Date:

Sunday, January 19, 2014

  Actual Average Record
Temperature  
Mean Temperature 50 °F -  
Max Temperature 64 °F 62 °F 86 °F (2001)
Min Temperature 37 °F 42 °F 17 °F (1977)
Degree Days  
Heating Degree Days 14    
Moisture  
Dew Point 36 °F    
Average Humidity 65    
Maximum Humidity 87    
Minimum Humidity 37    
Precipitation  
Precipitation 0.00 in - - ()
Sea Level Pressure  
Sea Level Pressure 30.11 in    
Wind  
Wind Speed 8 mph (WSW)    
Max Wind Speed 17 mph    
Max Gust Speed 25 mph    
Visibility 10 miles    
Events      
Averages and records for this station are not official NWS values.
T = Trace of Precipitation, MM = Missing Value Source: NWS Daily Summary

Daily Weather History Graph

Daily Weather History Graph

Search for Another Location

Airport or City:

Trip Planner

Search our weather history database for the weather conditions in past years. The results will help you decide how hot, cold, wet, or windy it might be!

Date:

Astronomy

Jan. 19, 2014 Rise Set
Actual Time 7:24 AM EST 5:49 PM EST
Civil Twilight 6:58 AM EST 6:15 PM EST
Nautical Twilight 6:28 AM EST 6:44 PM EST
Astronomical Twilight 5:59 AM EST 7:14 PM EST
Moon 9:09 PM EST (1/19) 9:08 AM EST (1/19)
Length of Visible Light 11h 17m
Length of Day
10h 25m
Waning Gibbous, 89% of the Moon is Illuminated
Jan 19
Waning Gibbous
Jan 24
Last Quarter
Jan 30
New
Feb 6
First Quarter
Feb 14
Full

Hourly Weather History & Observations

Time (EST) Temp. Windchill Dew Point Humidity Pressure Visibility Wind Dir Wind Speed Gust Speed Precip Events Conditions
12:15 AM 37.4 °F 31.4 °F 28.4 °F 70% 30.15 in 10.0 mi SW 8.1 mph - N/A   Clear
12:35 AM 37.4 °F 32.1 °F 28.4 °F 70% 30.15 in 10.0 mi SW 6.9 mph - N/A   Clear
12:55 AM 39.2 °F 33.0 °F 28.4 °F 65% 30.14 in 10.0 mi SW 9.2 mph - N/A   Clear
1:15 AM 37.4 °F 32.1 °F 28.4 °F 70% 30.14 in 10.0 mi WSW 6.9 mph - N/A   Clear
1:35 AM 37.4 °F 32.1 °F 28.4 °F 70% 30.14 in 10.0 mi WSW 6.9 mph - N/A   Clear
1:55 AM 37.4 °F 32.1 °F 28.4 °F 70% 30.14 in 10.0 mi SW 6.9 mph - N/A   Clear
2:15 AM 37.4 °F 31.4 °F 28.4 °F 70% 30.14 in 10.0 mi SW 8.1 mph - N/A   Clear
2:35 AM 37.4 °F 32.1 °F 30.2 °F 75% 30.13 in 10.0 mi SW 6.9 mph - N/A   Clear
2:55 AM 39.2 °F 35.0 °F 30.2 °F 70% 30.13 in 10.0 mi SW 5.8 mph - N/A   Clear
3:15 AM 37.4 °F 32.1 °F 30.2 °F 75% 30.13 in 10.0 mi SW 6.9 mph - N/A   Clear
3:35 AM 37.4 °F 31.4 °F 30.2 °F 75% 30.13 in 10.0 mi SW 8.1 mph - N/A   Clear
3:55 AM 37.4 °F 30.3 °F 32.0 °F 81% 30.14 in 10.0 mi WSW 10.4 mph - N/A   Clear
4:15 AM 39.2 °F 33.0 °F 32.0 °F 75% 30.13 in 10.0 mi WSW 9.2 mph - N/A   Clear
4:35 AM 39.2 °F 33.0 °F 32.0 °F 75% 30.13 in 10.0 mi WSW 9.2 mph - N/A   Clear
4:55 AM 39.2 °F 31.6 °F 32.0 °F 75% 30.12 in 10.0 mi SW 12.7 mph 18.4 mph N/A   Clear
5:15 AM 39.2 °F 31.6 °F 32.0 °F 75% 30.12 in 10.0 mi SW 12.7 mph 17.3 mph N/A   Clear
5:35 AM 41.0 °F 35.2 °F 32.0 °F 70% 30.13 in 10.0 mi WSW 9.2 mph - N/A   Clear
5:55 AM 39.2 °F 34.2 °F 32.0 °F 75% 30.13 in 10.0 mi WSW 6.9 mph - N/A   Clear
6:15 AM 39.2 °F 33.6 °F 32.0 °F 75% 30.13 in 10.0 mi WSW 8.1 mph - N/A   Clear
6:35 AM 39.2 °F 32.5 °F 32.0 °F 75% 30.14 in 10.0 mi WSW 10.4 mph - N/A   Clear
6:55 AM 39.2 °F 33.0 °F 32.0 °F 75% 30.14 in 10.0 mi WSW 9.2 mph - N/A   Clear
7:15 AM 39.2 °F 32.5 °F 32.0 °F 75% 30.14 in 10.0 mi SW 10.4 mph - N/A   Clear
7:35 AM 41.0 °F 35.2 °F 32.0 °F 70% 30.14 in 10.0 mi WSW 9.2 mph - N/A   Clear
7:55 AM 41.0 °F 36.4 °F 33.8 °F 76% 30.13 in 10.0 mi SW 6.9 mph - N/A   Clear
8:15 AM 44.6 °F 38.8 °F 35.6 °F 71% 30.13 in 10.0 mi SW 11.5 mph - N/A   Clear
8:35 AM 44.6 °F 39.7 °F 35.6 °F 71% 30.13 in 10.0 mi SW 9.2 mph - N/A   Clear
8:55 AM 46.4 °F 41.5 °F 37.4 °F 71% 30.14 in 10.0 mi SW 10.4 mph 18.4 mph N/A   Clear
9:15 AM 50.0 °F - 39.2 °F 66% 30.14 in 10.0 mi SW 11.5 mph - N/A   Clear
9:35 AM 50.0 °F - 41.0 °F 71% 30.13 in 10.0 mi SW 9.2 mph - N/A   Clear
9:55 AM 51.8 °F - 41.0 °F 67% 30.13 in 10.0 mi SW 11.5 mph - N/A   Clear
10:15 AM 51.8 °F - 41.0 °F 67% 30.14 in 10.0 mi SW 11.5 mph 19.6 mph N/A   Clear
10:35 AM 53.6 °F - 41.0 °F 62% 30.15 in 10.0 mi WSW 12.7 mph 17.3 mph N/A   Scattered Clouds
10:55 AM 53.6 °F - 42.8 °F 67% 30.15 in 10.0 mi West 11.5 mph 18.4 mph N/A   Mostly Cloudy
11:15 AM 53.6 °F - 42.8 °F 67% 30.14 in 10.0 mi WSW 10.4 mph - N/A   Overcast
11:35 AM 55.4 °F - 42.8 °F 63% 30.14 in 10.0 mi WSW 9.2 mph - N/A   Overcast
11:55 AM 59.0 °F - 44.6 °F 59% 30.12 in 10.0 mi WSW 10.4 mph 16.1 mph N/A   Scattered Clouds
12:15 PM 60.8 °F - 44.6 °F 55% 30.11 in 10.0 mi WSW 16.1 mph 25.3 mph N/A   Clear
12:35 PM 60.8 °F - 44.6 °F 55% 30.10 in 10.0 mi WSW 17.3 mph 24.2 mph N/A   Scattered Clouds
12:55 PM 62.6 °F - 44.6 °F 52% 30.08 in 10.0 mi West 13.8 mph 20.7 mph N/A   Mostly Cloudy
1:15 PM 62.6 °F - 44.6 °F 52% 30.07 in 10.0 mi WSW 11.5 mph 18.4 mph N/A   Overcast
1:35 PM 62.6 °F - 42.8 °F 48% 30.06 in 10.0 mi WSW 17.3 mph 25.3 mph N/A   Mostly Cloudy
1:55 PM 62.6 °F - 42.8 °F 48% 30.06 in 10.0 mi WSW 16.1 mph 23.0 mph N/A   Scattered Clouds
2:15 PM 62.6 °F - 41.0 °F 45% 30.05 in 10.0 mi West 13.8 mph 21.9 mph N/A   Scattered Clouds
2:35 PM 62.6 °F - 39.2 °F 42% 30.05 in 10.0 mi West 16.1 mph 23.0 mph N/A   Scattered Clouds
2:55 PM 64.4 °F - 37.4 °F 37% 30.05 in 10.0 mi WSW 15.0 mph 23.0 mph N/A   Scattered Clouds
3:15 PM 64.4 °F - 37.4 °F 37% 30.05 in 10.0 mi WSW 16.1 mph 24.2 mph N/A   Mostly Cloudy
3:35 PM 62.6 °F - 37.4 °F 39% 30.04 in 10.0 mi WSW 13.8 mph 23.0 mph N/A   Scattered Clouds
3:55 PM 64.4 °F - 37.4 °F 37% 30.04 in 10.0 mi West 12.7 mph - N/A   Scattered Clouds
4:15 PM 62.6 °F - 37.4 °F 39% 30.04 in 10.0 mi West 11.5 mph 18.4 mph N/A   Clear
4:35 PM 62.6 °F - 37.4 °F 39% 30.06 in 10.0 mi West 13.8 mph 19.6 mph N/A   Clear
4:55 PM 62.6 °F - 37.4 °F 39% 30.06 in 10.0 mi West 8.1 mph 11.5 mph N/A   Clear
5:15 PM 60.8 °F - 37.4 °F 42% 30.06 in 10.0 mi West 9.2 mph - N/A   Clear
5:35 PM 59.0 °F - 37.4 °F 45% 30.06 in 10.0 mi West 6.9 mph - N/A   Clear
5:55 PM 57.2 °F - 37.4 °F 48% 30.07 in 10.0 mi West 6.9 mph - N/A   Clear
6:15 PM 55.4 °F - 37.4 °F 51% 30.08 in 10.0 mi WNW 3.5 mph - N/A   Clear
6:35 PM 55.4 °F - 37.4 °F 51% 30.08 in 10.0 mi Calm Calm - N/A   Clear
6:55 PM 51.8 °F - 37.4 °F 58% 30.08 in 10.0 mi Calm Calm - N/A   Clear
7:15 PM 48.2 °F - 39.2 °F 71% 30.09 in 10.0 mi Calm Calm - N/A   Clear
7:55 PM 48.2 °F - 37.4 °F 66% 30.10 in 10.0 mi Calm Calm - N/A   Clear
8:15 PM 46.4 °F 45.2 °F 39.2 °F 76% 30.10 in 10.0 mi WNW 3.5 mph - N/A   Clear
8:35 PM 46.4 °F 45.2 °F 37.4 °F 71% 30.10 in 10.0 mi West 3.5 mph - N/A   Clear
8:55 PM 44.6 °F - 39.2 °F 81% 30.11 in 10.0 mi Calm Calm - N/A   Clear
9:15 PM 44.6 °F - 37.4 °F 76% 30.11 in 10.0 mi Calm Calm - N/A   Clear
9:35 PM 44.6 °F 43.1 °F 37.4 °F 76% 30.11 in 10.0 mi West 3.5 mph - N/A   Clear
9:55 PM 44.6 °F 43.1 °F 37.4 °F 76% 30.11 in 10.0 mi West 3.5 mph - N/A   Clear
10:15 PM 42.8 °F - 37.4 °F 81% 30.11 in 10.0 mi Calm Calm - N/A   Clear
10:35 PM 42.8 °F - 37.4 °F 81% 30.12 in 10.0 mi Calm Calm - N/A   Clear
10:55 PM 41.0 °F - 37.4 °F 87% 30.12 in 10.0 mi Calm Calm - N/A   Clear
11:15 PM 41.0 °F - 35.6 °F 81% 30.11 in 10.0 mi Calm Calm - N/A   Clear
11:35 PM 41.0 °F - 37.4 °F 87% 30.11 in 10.0 mi Calm Calm - N/A   Clear
11:55 PM 39.2 °F - 35.6 °F 87% 30.11 in 10.0 mi Calm Calm - N/A   Clear